When you browse on this site, cookies collect data to enhance your experience and personalize the content and advertising you see.
Visit our Privacy Policy to learn more. By continuing to use the site, you agree to this use of cookies and data.
  • In Austria
  • List of Countries
  • For 7 days
  • Water Temperature
  • Weather Map
  • News
  • Weather Widgets
  • user-avatar
    Login

    Hourly Weather Santa Fe

    Today, 14 December, Saturday

    Time Temperature Precipitation Wind Pressure Humidity
    00:00 +23°C° 0.1 mm 4 mps 757 mmHg 40%
    01:00 +24°C° 0.1 mm 3 mps 757 mmHg 43%
    02:00 +22°C° 0 mm 4 mps 757 mmHg 48%
    03:00 +22°C° 0.2 mm 4 mps 757 mmHg 54%
    04:00 +21°C° 0.2 mm 4 mps 757 mmHg 60%
    05:00 +20°C° 0.2 mm 4 mps 757 mmHg 65%
    06:00 +21°C° 0.8 mm 4 mps 758 mmHg 70%
    07:00 +21°C° 0.8 mm 4 mps 758 mmHg 74%
    08:00 +21°C° 0 mm 4 mps 758 mmHg 76%
    09:00 +22°C° 0 mm 4 mps 758 mmHg 73%
    10:00 +23°C° 0 mm 4 mps 757 mmHg 69%
    11:00 +25°C° 0 mm 3 mps 757 mmHg 65%
    12:00 +26°C° 1.1 mm 3 mps 756 mmHg 68%
    13:00 +26°C° 1.1 mm 2 mps 756 mmHg 70%
    14:00 +27°C° 1.1 mm 1 mps 755 mmHg 72%
    15:00 +27°C° 1.9 mm 2 mps 755 mmHg 76%
    16:00 +26°C° 1.9 mm 4 mps 754 mmHg 80%
    17:00 +25°C° 1.9 mm 5 mps 753 mmHg 85%
    18:00 +23°C° 2.8 mm 4 mps 754 mmHg 88%
    19:00 +23°C° 2.8 mm 4 mps 754 mmHg 91%
    20:00 +22°C° 2.8 mm 4 mps 754 mmHg 94%
    21:00 +22°C° 3.2 mm 4 mps 754 mmHg 94%
    22:00 +22°C° 3.2 mm 4 mps 754 mmHg 94%
    23:00 +22°C° 3.2 mm 5 mps 754 mmHg 95%

    Tomorrow, 15 December, Sunday

    Time Temperature Precipitation Wind Pressure Humidity
    00:00 +21°C° 2.6 mm 4 mps 754 mmHg 95%
    01:00 +21°C° 2.6 mm 4 mps 753 mmHg 95%
    02:00 +21°C° 2.6 mm 3 mps 753 mmHg 95%
    03:00 +21°C° 1.5 mm 3 mps 753 mmHg 96%
    04:00 +21°C° 1.5 mm 2 mps 753 mmHg 97%
    05:00 +22°C° 1.5 mm 1 mps 753 mmHg 97%
    06:00 +21°C° 1.3 mm 2 mps 753 mmHg 96%
    07:00 +21°C° 1.3 mm 3 mps 754 mmHg 95%
    08:00 +22°C° 1.3 mm 3 mps 754 mmHg 94%
    09:00 +24°C° 0.2 mm 3 mps 754 mmHg 87%
    10:00 +25°C° 0.2 mm 3 mps 754 mmHg 80%
    11:00 +27°C° 0.2 mm 3 mps 754 mmHg 73%
    12:00 +28°C° 0.1 mm 3 mps 754 mmHg 64%
    13:00 +30°C° 0.1 mm 3 mps 753 mmHg 55%
    14:00 +31°C° 0.1 mm 3 mps 753 mmHg 46%
    15:00 +31°C° 0 mm 3 mps 753 mmHg 46%
    16:00 +31°C° 0 mm 2 mps 752 mmHg 46%
    17:00 +31°C° 0 mm 2 mps 752 mmHg 46%
    18:00 +29°C° 0 mm 2 mps 752 mmHg 51%
    19:00 +27°C° 0 mm 2 mps 752 mmHg 56%
    20:00 +25°C° 0 mm 2 mps 752 mmHg 61%
    21:00 +24°C° 0 mm 2 mps 753 mmHg 64%
    22:00 +24°C° 0 mm 2 mps 753 mmHg 67%
    23:00 +22°C° 0 mm 3 mps 753 mmHg 70%

    Day after tomorrow, 16 December, Monday

    Time Temperature Precipitation Wind Pressure Humidity
    00:00 +21°C° 0 mm 2 mps 753 mmHg 74%
    01:00 +21°C° 0 mm 2 mps 753 mmHg 77%
    02:00 +21°C° 0 mm 1 mps 753 mmHg 81%
    03:00 +21°C° 0 mm 1 mps 753 mmHg 83%
    04:00 +20°C° 0 mm 2 mps 753 mmHg 85%
    05:00 +20°C° 0 mm 2 mps 754 mmHg 87%
    06:00 +21°C° 0 mm 2 mps 754 mmHg 81%
    07:00 +22°C° 0 mm 3 mps 755 mmHg 75%
    08:00 +25°C° 0 mm 3 mps 755 mmHg 69%
    09:00 +27°C° 0 mm 2 mps 755 mmHg 61%
    10:00 +29°C° 0 mm 1 mps 755 mmHg 54%
    11:00 +31°C° 0 mm 1 mps 755 mmHg 47%
    12:00 +31°C° 0 mm 1 mps 755 mmHg 45%
    13:00 +31°C° 0 mm 1 mps 754 mmHg 44%
    14:00 +31°C° 0 mm 2 mps 754 mmHg 42%
    15:00 +29°C° 0.6 mm 3 mps 754 mmHg 50%
    16:00 +28°C° 0.6 mm 3 mps 753 mmHg 58%
    17:00 +26°C° 0.6 mm 4 mps 753 mmHg 65%
    18:00 +24°C° 0.1 mm 3 mps 754 mmHg 71%
    19:00 +23°C° 0.1 mm 2 mps 754 mmHg 76%
    20:00 +20°C° 0.1 mm 2 mps 755 mmHg 82%
    21:00 +21°C° 0.1 mm 1 mps 755 mmHg 83%
    22:00 +20°C° 0.1 mm 1 mps 756 mmHg 84%
    23:00 +20°C° 0.1 mm 1 mps 756 mmHg 85%

    17 December, Tuesday

    Time Temperature Precipitation Wind Pressure Humidity
    00:00 +19°C° 0 mm 1 mps 756 mmHg 86%
    01:00 +19°C° 0 mm 1 mps 756 mmHg 86%
    02:00 +19°C° 0 mm 1 mps 756 mmHg 87%
    03:00 +19°C° 0 mm 1 mps 756 mmHg 88%
    04:00 +18°C° 0 mm 1 mps 756 mmHg 90%
    05:00 +17°C° 0 mm 2 mps 756 mmHg 91%
    06:00 +19°C° 0 mm 2 mps 757 mmHg 83%
    07:00 +22°C° 0 mm 1 mps 757 mmHg 75%
    08:00 +24°C° 0 mm 1 mps 758 mmHg 66%
    09:00 +27°C° 0 mm 1 mps 758 mmHg 59%
    10:00 +29°C° 0 mm 1 mps 758 mmHg 51%
    11:00 +31°C° 0 mm 1 mps 758 mmHg 43%
    12:00 +32°C° 0 mm 1 mps 757 mmHg 39%
    13:00 +32°C° 0 mm 1 mps 757 mmHg 35%
    14:00 +33°C° 0 mm 1 mps 756 mmHg 31%
    15:00 +32°C° 0 mm 2 mps 756 mmHg 33%
    16:00 +32°C° 0 mm 2 mps 755 mmHg 34%
    17:00 +32°C° 0 mm 2 mps 755 mmHg 36%
    18:00 +29°C° 0 mm 3 mps 755 mmHg 43%
    19:00 +27°C° 0 mm 3 mps 755 mmHg 51%
    20:00 +25°C° 0 mm 3 mps 756 mmHg 58%
    21:00 +25°C° 0 mm 3 mps 756 mmHg 59%
    22:00 +24°C° 0 mm 3 mps 756 mmHg 61%
    23:00 +22°C° 0 mm 3 mps 757 mmHg 62%

    18 December, Wednesday

    Time Temperature Precipitation Wind Pressure Humidity
    00:00 +22°C° 0 mm 3 mps 757 mmHg 63%
    01:00 +21°C° 0 mm 3 mps 756 mmHg 65%
    02:00 +20°C° 0 mm 3 mps 756 mmHg 66%
    03:00 +20°C° 0 mm 3 mps 757 mmHg 68%
    04:00 +20°C° 0 mm 3 mps 757 mmHg 69%
    05:00 +19°C° 0 mm 3 mps 757 mmHg 71%
    06:00 +21°C° 0 mm 4 mps 757 mmHg 65%
    07:00 +23°C° 0 mm 5 mps 758 mmHg 59%
    08:00 +26°C° 0 mm 5 mps 758 mmHg 54%
    09:00 +28°C° 0 mm 5 mps 758 mmHg 49%
    10:00 +29°C° 0 mm 5 mps 758 mmHg 44%
    11:00 +32°C° 0 mm 5 mps 757 mmHg 39%
    12:00 +33°C° 0 mm 5 mps 757 mmHg 38%
    13:00 +33°C° 0 mm 5 mps 756 mmHg 36%
    14:00 +34°C° 0 mm 5 mps 755 mmHg 34%
    15:00 +34°C° 0 mm 5 mps 755 mmHg 35%
    16:00 +33°C° 0 mm 5 mps 754 mmHg 36%
    17:00 +33°C° 0 mm 4 mps 754 mmHg 37%
    18:00 +30°C° 0 mm 4 mps 754 mmHg 42%
    19:00 +28°C° 0 mm 4 mps 754 mmHg 46%
    20:00 +26°C° 0 mm 4 mps 754 mmHg 51%
    21:00 +25°C° 0 mm 4 mps 754 mmHg 52%
    22:00 +23°C° 0 mm 4 mps 755 mmHg 53%
    23:00 +22°C° 0 mm 4 mps 755 mmHg 54%

    19 December, Thursday

    Time Temperature Precipitation Wind Pressure Humidity
    00:00 +22°C° 0 mm 3 mps 754 mmHg 56%
    01:00 +21°C° 0 mm 3 mps 754 mmHg 58%
    02:00 +20°C° 0 mm 3 mps 754 mmHg 60%
    03:00 +20°C° 0 mm 3 mps 754 mmHg 63%
    04:00 +20°C° 0 mm 3 mps 754 mmHg 65%
    05:00 +19°C° 0 mm 3 mps 754 mmHg 67%
    06:00 +21°C° 0 mm 3 mps 754 mmHg 63%
    07:00 +25°C° 0 mm 4 mps 754 mmHg 59%
    08:00 +27°C° 0 mm 4 mps 755 mmHg 55%
    09:00 +29°C° 0 mm 4 mps 754 mmHg 49%
    10:00 +33°C° 0 mm 4 mps 754 mmHg 43%
    11:00 +36°C° 0 mm 5 mps 754 mmHg 37%
    12:00 +36°C° 0 mm 4 mps 753 mmHg 34%
    13:00 +37°C° 0 mm 4 mps 752 mmHg 32%
    14:00 +38°C° 0 mm 3 mps 752 mmHg 29%
    15:00 +38°C° 0 mm 3 mps 751 mmHg 31%
    16:00 +37°C° 0 mm 4 mps 751 mmHg 32%
    17:00 +37°C° 0 mm 4 mps 750 mmHg 33%
    18:00 +35°C° 0 mm 4 mps 750 mmHg 38%
    19:00 +33°C° 0 mm 3 mps 751 mmHg 43%
    20:00 +29°C° 0 mm 3 mps 751 mmHg 48%
    21:00 +29°C° 0 mm 3 mps 751 mmHg 49%
    22:00 +28°C° 0 mm 4 mps 751 mmHg 49%
    23:00 +28°C° 0 mm 4 mps 751 mmHg 50%
    Show more